OPS 4682 DEB, 18538

Orbit data source: Space-Track

OPS 4682 DEB, 18538 is space debris in LEO originally from a launch on Sat, 03 Apr 1965 UTC launched from the Air Force Western Test Range (AFWTR). Debris objects in space refer to the collection of defunct objects orbiting the Earth. Examples of debris include non-operational satellites, rocket bodies, and fragments generated from explosions, collisions, or faulty payload assembly.

Loading next visibility...
Identifier
18538, 1965-027AF
Orbit
LEO
Country
Flag of USUS
Related business
Manufacturer
Unknown
Mission
Spacecraft
Bus & Motor
Unknown
Mass
Unknown
Launch date (UTC)
1965-04-03 (61 years ago)
Launch vehicle
Unknown
Launch site
Air Force Western Test Range (AFWTR)
Object type
Payload
Rocket body
Debris
Shape & HBR
Unknown shape, 0.1 m
Radar Cross Section
Small (<0.1 m²)

Expand to show TLE details & history
Last TLE update: 13 hours ago

TLE from 13 hours ago
0 OPS 4682 DEB
1 18538U 65027AF  26119.14103500  .00000201  00000-0  68660-3 0  9990
2 18538  90.2413   2.6394 0028151 298.2753 215.3865 12.95302990489318
Epoch: 2026-04-29T03:23Z
TLE epoch observation values (Epoch: 2026-04-29T03:23:05.424Z)
Latitude
26.55602°
Longitude
-85.11945°
Altitude
1,301.374 km
Speed
7.2 km/s
True Right ascension
12h 11m 02s
True Declination
26° 25' 42"
Sunlit
Object was in full shadow at epoch
Visualization orbit readout
Latitude
Unknown
Longitude
Unknown
Altitude
Unknown
Speed
Unknown
Apparent Right ascension
Unknown
Apparent Declination
Unknown
Sunlit
N/A
Visualization observer readout
Local Sidereal Time
23:33:25
Azimuth
Unknown
Elevation
Unknown
Doppler factor
Unknown
Orbital elements
Apogee altitude
1,299.231 km
Perigee altitude
1,256.127 km
Semi-major axis
7,655.816 km
Eccentricity
0.00282
Inclination
90.2413°
RAAN
2.6394°
Arg. of periapsis
298.2753°
True anomaly
215.20023°
Mean anomaly
215.3865°
Eccentric anomaly
215.29331°
Mean motion
3.24008 °/min
Orbital period
111.11 mins
BSTAR
0.0006866
Loading maneuver chart data...
Computing Atmospheric mass density...
Loading historical data...
Loading historical data...
Loading historical data...
Loading historical data...
Loading historical data...
Loading historical data...
Loading historical data...

Documentation

Showing up to 5 results
|